Location: Dodgeville, WI 53533, USA
(43.0344°N, 90.0900°W)
Time: 19:40:30
(UTC-05:00)

OTV 5 (USA 277) - Visible Passes

Search period start: 24 June 2018 00:00
Search period end: 04 July 2018 00:00
Orbit: 313 x 320 km, 54.5° (Epoch: 21 June)

Date Brightness Start Highest point End Pass type
(mag) Time Alt. Az. Time Alt. Az. Time Alt. Az.
24 Jun ? 00:46:10 10° NNW 00:47:41 21° N 00:47:41 21° N visible
24 Jun ? 23:27:05 10° N 23:28:14 12° NNE 23:29:23 10° NE visible
25 Jun ? 01:00:21 10° NW 01:00:55 15° NW 01:00:55 15° NW visible
25 Jun ? 23:40:55 10° NNW 23:42:57 19° NNE 23:43:24 18° NE visible
26 Jun ? 22:22:27 10° N 22:22:36 10° NNE 22:22:45 10° NNE visible
26 Jun ? 23:55:00 10° NW 23:56:47 29° N 23:56:47 29° N visible
27 Jun ? 22:35:44 10° NNW 22:37:22 15° NNE 22:38:59 10° ENE visible
28 Jun ? 00:09:18 10° NW 00:10:14 19° NW 00:10:14 19° NW visible
28 Jun ? 22:49:42 10° NNW 22:52:02 25° NNE 22:52:54 21° ENE visible
29 Jun ? 21:30:39 10° N 21:31:45 12° NNE 21:32:52 10° NE visible
29 Jun ? 23:03:53 10° NW 23:06:27 56° NNE 23:06:27 56° NNE visible
30 Jun ? 21:44:28 10° NNW 21:46:29 18° NNE 21:48:29 10° ENE visible
30 Jun ? 23:18:20 10° WNW 23:20:03 31° W 23:20:03 31° W visible
01 Jul ? 21:58:32 10° NW 22:01:05 35° NNE 22:02:51 16° E visible
01 Jul ? 23:33:19 10° W 23:33:42 12° W 23:33:42 12° W visible
02 Jul ? 22:12:50 10° NW 22:15:32 85° SW 22:16:33 34° SE visible
03 Jul ? 22:27:29 10° WNW 22:29:51 28° SW 22:30:19 26° SSW visible
